カタログに戻る

QIANFAN-53

運用中通信PO
NORAD 62254·PAYLOAD·🇨🇳 China

打ち上げ Dec 5, 2024 から Taiyuan Satellite Launch Center

Loading…

次のパス (今後24時間)

TLE

最新Source: Space-Track

元期: Sep 14, 2026, 21:20 UTC

1 62254U 24232T   26257.88944457  .00000098  00000-0  13258-3 0  9992
2 62254  89.0162  13.5096 0016125 114.4312 245.8523 13.51026897105199

AllMySatでQIANFAN-53をリアルタイム追跡

Download on the App Store